Hourly Data Report for November 10, 2021

MOUNT FOREST (AUT)
ONTARIO
Current Station Operator: ECCC - MSC

43°59'00.000" N
80°45'00.000" W
414.50 m
6145504
71631
WLS

Download Data

Hourly Data (November 2021)
Hourly Data Report for November 10, 2021
TIME
LST
Temp Definition
°C
Dew Point Definition
°C
Rel Hum Definition
%
Precip. Amount Definition
mm

Wind Dir Definition
10's deg

Wind Spd Definition
km/h
Visibility Definition
km
Stn Press Definition
kPa
Hmdx Definition


Wind Chill Definition


Weather Definition


00:00 3.1 2.8 98 0.0   0   96.96     LegendNANA
01:00 1.8 1.6 99 0.0 0 1   97.01     LegendNANA
02:00 1.1 1.0 99 0.0   0   97.03     LegendNANA
03:00 0.1 -0.1 99 0.0   0   97.07     LegendNANA
04:00 -0.7 -0.8 99 0.0   0   97.07     LegendNANA
05:00 -0.9 -1.0 99 0.0 18 3   97.12   -2 LegendNANA
06:00 -1.0 -1.1 99 0.0 17 3   97.15   -2 LegendNANA
07:00 -1.1 -1.2 99 0.0 16 4   97.16   -2 LegendNANA
08:00 0.1 -0.1 99 0.0 17 4   97.22     LegendNANA
09:00 3.5 2.4 92 0.0 20 3   97.31     LegendNANA
10:00 6.6 3.4 80 0.0 26 5   97.33     LegendNANA
11:00 7.8 3.4 74 0.0 28 8   97.34     LegendNANA
12:00 8.4 1.0 59 0.0 29 11   97.35     LegendNANA
13:00 9.7 -0.1 51 0.0 30 13   97.34     LegendNANA
14:00 9.8 -0.9 47 0.0 28 10   97.28     LegendNANA
15:00 10.2 -1.9 43 0.0 31 6   97.27     LegendNANA
16:00 9.1 -0.8 50 0.0 29 6   97.29     LegendNANA
17:00 7.4 -0.9 56 0.0 29 4   97.29     LegendNANA
18:00 5.0 -0.7 66 0.0   0   97.35     LegendNANA
19:00 2.5 -1.0 78 0.0   0   97.31     LegendNANA
20:00 1.9 -0.3 85 0.0   0   97.30     LegendNANA
21:00 2.1 -0.9 81 0.0 9 7   97.30     LegendNANA
22:00 2.5 -1.5 75 0.0 8 7   97.30     LegendNANA
23:00 3.0 -2.1 70 0.0 9 8   97.24     LegendNANA

Notes on Data Quality.

Legend

  • E = Estimated
  • M = Missing
  • NA = Not Available*
  • [empty] = Indicates an unobserved value
Date modified: